Back to catalog

GLOBALSTAR M035

AliveCommunicationsMEO
NORAD 25851·PAYLOAD·🇺🇸 United States

Launched Jul 10, 1999 from Cape Canaveral Space Force Station

Loading…

Next Passes (next 24 hours)

TLE

FreshSource: Space-Track

Epoch: Sep 14, 2026, 14:17 UTC

1 25851U 99037A   26257.59515803 -.00000032  00000-0  11931-2 0  9990
2 25851  51.9928 121.5828 0014219   1.5414  18.7999 11.04542962146475

Track GLOBALSTAR M035 in real time with AllMySat

Download on the App Store